Regional Weather Roundup
Issued by NWS

Home | Current Version | Previous Version | Text Only | Print | Product List | Glossary Off
Versions: 1 2 3 4 5 6 7 8 9 10 11 12 13 14 15 16 17 18 19 20 21 22 23 24 25 26 27 28 29 30 31 32 33 34 35 36 37 38 39 40 41 42 43 44 45 46 47 48 49 50

000
ASUS43 KIND 300609
RWRIN

WEATHER ROUNDUP FOR INDIANA
NATIONAL WEATHER SERVICE INDIANAPOLIS IN
200 AM EDT WED JUL 30 2014

NOTE: "FAIR" INDICATES FEW OR NO CLOUDS BELOW 12,000 FEET WITH NO
SIGNIFICANT WEATHER AND/OR OBSTRUCTIONS TO VISIBILITY.

* - STATION DOES NOT REPORT WEATHER SUCH AS PRECIPITATION OR FOG.

+ - STATION NOT QUALITY CONTROLLED BY THE NATIONAL WEATHER SERVICE.
    USE DATA WITH CAUTION...ESPECIALLY DEWPOINT AND RELATIVE
    HUMIDITY OBSERVATIONS.

INZ001>003-010>013-019-020-300700-
NORTHWEST INDIANA

CITY           SKY/WX    TMP DP  RH WIND       PRES   REMARKS
GARY /AIRPORT/ MOCLDY    64  60  87 CALM      30.01F
KNOX *+        PTCLDY    58  55  88 CALM      30.01R
LA PORTE +     CLOUDY    61  55  80 CALM      30.01F
6HR MIN TEMP:  60; 6HR MAX TEMP:  70;

MICHIGAN CITY+ CLOUDY    59  57  94 CALM      30.00F
MONTICELLO +   CLEAR     58  57  97 CALM      30.02S
RENSSELAER +   PTCLDY    59  59 100 NW3       30.04R
VALPARAISO     PTCLDY    62  58  86 E3        30.01F
6HR MIN TEMP:  60; 6HR MAX TEMP:  71; 6HR PCP: TRACE;


$$

LMZ046-743>745-300700-
SOUTHERN LAKE MICHIGAN

STATION/POSITION TIME  TEMP WIND        PRES
                       AIR  DIR/SP/G
                 (UTC) (F)  (DEG/KT/KT) (MB)
MICHIGAN CITY    0600   63  100/  4/  7   N/A

$$

INZ004-005-014>016-021>024-300700-
NORTH CENTRAL INDIANA

CITY           SKY/WX    TMP DP  RH WIND       PRES   REMARKS
GOSHEN         CLOUDY    63  56  78 NE3       30.01R
6HR MIN TEMP:  59; 6HR MAX TEMP:  71;

LOGANSPORT +   CLEAR     55  54  94 SW3       30.03S
PERU/GRISSOM   CLEAR     57  57 100 SW3       30.03S
6HR MIN TEMP:  56; 6HR MAX TEMP:  66;

ROCHESTER +    PTCLDY    61  57  88 SW3       30.02S
SOUTH BEND     RAIN      62  56  80 CALM      30.01S
6HR MIN TEMP:  62; 6HR MAX TEMP:  72; 6HR PCP:  0.02;

WARSAW +       PTCLDY    59  57  94 CALM      30.01S

$$

INZ006>009-017-018-025>027-300700-
NORTHEAST INDIANA

CITY           SKY/WX    TMP DP  RH WIND       PRES   REMARKS
ANGOLA *+      MOCLDY    55  46  71 NW3       30.01S
AUBURN +       PTCLDY    57  54  88 CALM      30.02R
FORT WAYNE     PTCLDY    58  56  93 SW3       30.02S
6HR MIN TEMP:  57; 6HR MAX TEMP:  69;

HUNTINGTON +   CLEAR     58  57  97 CALM      30.01S
6HR MIN TEMP:  57; 6HR MAX TEMP:  68;


$$

INZ028-029-035-036-043>045-051>053-300700-
WEST CENTRAL INDIANA

CITY           SKY/WX    TMP DP  RH WIND       PRES   REMARKS
GREENCASTLE +  PTCLDY    55  55 100 CALM      30.06F
LAFAYETTE      RAIN      59  59 100 CALM      30.03F VSB 1/2
6HR MIN TEMP:  59; 6HR MAX TEMP:  65; 6HR PCP:  0.35;

TERRE HAUTE    CLEAR     59  55  87 CALM      30.06F
6HR MIN TEMP:  59; 6HR MAX TEMP:  74;


$$

INZ030>032-037>040-046>048-054>057-064-065-300700-
CENTRAL INDIANA

CITY           SKY/WX    TMP DP  RH WIND       PRES   REMARKS
CP ATTERBURY + CLOUDY    59  59 100 SW3       30.06F
GREENWOOD *+   CLEAR     63  63 100 CALM      30.06
INDIANAPOLIS   CLEAR     59  58  96 SW3       30.04F FOG
6HR MIN TEMP:  59; 6HR MAX TEMP:  64; 6HR PCP:  0.20;

-EAGLE CREEK   CLEAR     60  58  92 CALM      30.04F
6HR MIN TEMP:  60; 6HR MAX TEMP:  64; 6HR PCP:  0.12;

KOKOMO *+      CLEAR     57  55  94 SW6       30.04R
MARION +       CLEAR     56  55  97 CALM      30.04S
MT COMFORT *+  CLEAR     59 N/A N/A SW5       30.05S
SHELBYVILLE    PTCLDY    61  58  90 SW3       30.05S
6HR MIN TEMP:  61; 6HR MAX TEMP:  70; 6HR PCP:  0.09;

ZIONSVILLE +   PTCLDY    60  57  89 CALM      30.06S
6HR MIN TEMP:  59; 6HR MAX TEMP:  64; 6HR PCP:  0.06;


$$

INZ033-034-041-042-049-050-058-059-300700-
EAST CENTRAL INDIANA

CITY           SKY/WX    TMP DP  RH WIND       PRES   REMARKS
MUNCIE         CLEAR     60  56  86 W7        30.04S
6HR MIN TEMP:  60; 6HR MAX TEMP:  66;


$$

INZ060-061-067>069-081>083-085>088-300700-
SOUTHWEST INDIANA

CITY           SKY/WX    TMP DP  RH WIND       PRES   REMARKS
EVANSVILLE     CLEAR     63  58  83 SW3       30.09S
6HR MIN TEMP:  62; 6HR MAX TEMP:  76;

WASHINGTON +   CLEAR     58  57  99 CALM      30.06F
6HR MIN TEMP:  57; 6HR MAX TEMP:  72;


$$

INZ062-063-066-070>080-084-089>092-300700-
SOUTH CENTRAL AND SOUTHEAST INDIANA

CITY           SKY/WX    TMP DP  RH WIND       PRES   REMARKS
BEDFORD +      CLEAR     59  55  88 CALM      30.07S
BLOOMINGTON    CLEAR     58  56  93 W3        30.07S
6HR MIN TEMP:  57; 6HR MAX TEMP:  71;


$$




USA.gov is the U.S. government's official web portal to all federal, state and local government web resources and services.